Date String (YYYY-MM-DD hh:mm:ss) UTC,Instrument flags,Ambient pressure (hPa),Sample flow (lpm),Bypass flow (lpm),Sample temperature (°C),Ambient temperature (°C),ASC tube jacket temperature (°C),LED temperature (°C),Box temperature (°C),Sample RH (%),Span deviation,Mass concentration (μg/m³),Mass concentration (μg/m³),Mass concentration (μg/m³)
DateTimeUTC,F1_M11,P_M11,Q1_M11,Q2_M11,T1_M11,T2_M11,T3_M11,T4_M11,T5_M11,U1_M11,ZSPAN_M11,X2_M11,X0_M11,X1_M11
2023-01-31 19:00:00,,0824.7,5.05,0.00,23.0,21.7,00.0,31.8,24.8,05.6,0000.8,0006.09,0010.08,0005.74
2023-01-31 19:01:00,,0824.6,5.02,0.00,23.0,21.7,00.0,31.9,24.8,05.7,0000.7,0006.05,0010.00,0005.69
2023-01-31 19:02:00,,0824.6,5.01,0.00,23.0,21.7,00.0,31.9,24.8,05.7,0000.8,0006.04,0010.00,0005.66
2023-01-31 19:03:00,,0824.5,4.97,0.00,23.1,21.7,00.0,31.9,24.8,05.8,0000.6,0006.09,0010.06,0005.68
2023-01-31 19:04:00,,0824.7,4.95,0.00,23.1,21.7,00.0,31.9,24.8,05.7,0000.7,0006.15,0010.08,0005.71
2023-01-31 19:05:00,,0824.6,4.96,0.00,23.1,21.8,00.0,31.9,24.8,05.6,0001.0,0006.22,0010.18,0005.76
2023-01-31 19:06:00,,0824.7,5.00,0.00,23.1,21.8,00.0,31.9,24.8,05.7,0000.9,0006.26,0010.24,0005.82
2023-01-31 19:07:00,,0824.8,5.01,0.00,23.1,21.8,00.0,31.9,24.8,05.9,0000.7,0006.33,0010.31,0005.89
2023-01-31 19:08:00,,0824.8,4.96,0.00,23.1,21.8,00.0,31.9,24.9,05.9,0000.9,0006.37,0010.36,0005.95
2023-01-31 19:09:00,,0824.4,5.05,0.00,23.1,21.8,00.0,31.9,24.9,05.9,0001.4,0006.39,0010.01,0005.97
2023-01-31 19:10:00,,0824.5,4.97,0.00,23.1,21.8,00.0,31.9,24.9,05.8,0001.6,0006.41,0009.96,0005.97
2023-01-31 19:11:00,,0824.4,5.02,0.00,23.1,21.8,00.0,31.9,24.9,05.8,0001.3,0006.42,0009.95,0005.97
2023-01-31 19:12:00,,0824.4,5.00,0.00,23.1,21.9,00.0,31.9,24.9,06.2,0000.8,0006.48,0010.12,0006.03
2023-01-31 19:13:00,,0824.4,5.03,0.00,23.1,21.9,00.0,31.9,24.9,06.3,0000.9,0006.57,0010.29,0006.13
2023-01-31 19:14:00,,0824.4,5.04,0.00,23.1,21.9,00.0,31.9,24.9,06.3,0000.4,0006.68,0010.67,0006.24
2023-01-31 19:15:00,,0824.4,4.98,0.00,23.1,21.9,00.0,31.9,24.9,06.2,0000.3,0006.84,0011.00,0006.37
2023-01-31 19:16:00,,0824.4,5.03,0.00,23.2,21.9,00.0,31.9,24.9,06.2,0000.4,0007.01,0011.51,0006.51
2023-01-31 19:17:00,,0824.3,5.02,0.00,23.2,21.9,00.0,31.9,24.9,06.4,0000.8,0007.18,0012.03,0006.64
2023-01-31 19:18:00,,0824.3,4.99,0.00,23.2,21.9,00.0,32.0,25.0,06.4,0000.5,0007.32,0012.53,0006.79
2023-01-31 19:19:00,,0824.3,5.02,0.00,23.2,21.9,00.0,32.0,25.0,06.4,-000.0,0007.48,0013.00,0006.95
2023-01-31 19:20:00,,0824.3,4.99,0.00,23.2,22.0,00.0,32.0,25.0,06.2,-000.4,0007.66,0013.64,0007.10
2023-01-31 19:21:00,,0824.3,5.00,0.00,23.2,22.0,00.0,32.0,25.0,06.3,-000.8,0007.84,0014.08,0007.26
2023-01-31 19:22:00,,0824.2,5.05,0.00,23.2,22.0,00.0,32.0,25.0,06.3,-000.6,0008.03,0014.50,0007.46
2023-01-31 19:23:00,,0824.3,4.97,0.00,23.2,22.0,00.0,32.0,25.0,06.3,-000.7,0008.14,0014.55,0007.59
2023-01-31 19:24:00,,0824.2,5.01,0.00,23.2,22.0,00.0,32.0,25.0,06.3,-001.1,0008.20,0014.59,0007.65
2023-01-31 19:25:00,,0824.3,4.99,0.00,23.2,22.0,00.0,32.0,25.0,06.3,-000.7,0008.20,0014.31,0007.68
2023-01-31 19:26:00,,0824.2,5.03,0.00,23.2,22.0,00.0,32.0,25.0,06.3,-001.2,0008.20,0014.17,0007.71
2023-01-31 19:27:00,,0824.2,4.99,0.00,23.2,22.0,00.0,32.0,25.0,06.3,-001.1,0008.20,0014.39,0007.74
2023-01-31 19:28:00,,0824.2,4.97,0.00,23.2,22.0,00.0,32.0,25.0,06.3,-001.2,0008.20,0014.22,0007.78
2023-01-31 19:29:00,,0824.1,4.99,0.00,23.3,22.0,00.0,32.0,25.0,06.4,-001.2,0008.23,0014.10,0007.77
2023-01-31 19:30:00,,0824.1,5.02,0.00,23.3,22.0,00.0,32.0,25.0,06.5,-000.8,0008.24,0014.26,0007.75
2023-01-31 19:31:00,,0824.1,4.98,0.00,23.3,22.0,00.0,32.0,25.0,06.5,-000.8,0008.23,0013.96,0007.74
2023-01-31 19:32:00,,0824.2,5.00,0.00,23.3,22.0,00.0,32.1,25.0,06.5,-000.6,0008.24,0013.90,0007.74
2023-01-31 19:33:00,,0824.2,5.04,0.00,23.3,22.0,00.0,32.1,25.0,06.4,-000.2,0008.25,0013.61,0007.72
2023-01-31 19:34:00,,0824.3,4.97,0.00,23.3,22.1,00.0,32.1,25.1,06.4,-000.2,0008.23,0013.60,0007.68
2023-01-31 19:35:00,,0824.3,4.99,0.00,23.3,22.1,00.0,32.1,25.1,06.4,-000.3,0008.22,0013.61,0007.67
2023-01-31 19:36:00,,0824.3,4.97,0.00,23.3,22.1,00.0,32.1,25.1,06.4,-000.8,0008.26,0013.81,0007.68
2023-01-31 19:37:00,,0824.2,4.99,0.00,23.3,22.1,00.0,32.1,25.1,06.3,-000.4,0008.27,0013.84,0007.68
2023-01-31 19:38:00,,0824.1,5.00,0.00,23.3,22.1,00.0,32.1,25.0,06.3,-000.5,0008.33,0013.63,0007.70
2023-01-31 19:39:00,,0824.1,5.00,0.00,23.3,22.1,00.0,32.1,25.1,06.1,-001.2,0008.42,0014.42,0007.74
2023-01-31 19:40:00,,0824.1,5.04,0.00,23.3,22.1,00.0,32.1,25.1,06.1,-001.3,0008.46,0014.42,0007.79
2023-01-31 19:41:00,,0824.1,4.99,0.00,23.3,22.1,00.0,32.1,25.1,06.1,-001.3,0008.52,0014.43,0007.82
2023-01-31 19:42:00,,0824.1,5.03,0.00,23.3,22.1,00.0,32.1,25.1,06.1,-001.2,0008.61,0014.95,0007.86
2023-01-31 19:43:00,,0824.0,4.96,0.00,23.4,22.1,00.0,32.1,25.1,06.1,-001.3,0008.68,0015.16,0007.90
2023-01-31 19:44:00,,0824.1,5.03,0.00,23.4,22.1,00.0,32.1,25.1,06.1,-001.8,0008.74,0015.20,0007.95
2023-01-31 19:45:00,,0824.0,4.99,0.00,23.4,22.1,00.0,32.2,25.1,06.2,-001.7,0008.81,0015.25,0008.04
2023-01-31 19:46:00,,0824.0,5.00,0.00,23.4,22.1,00.0,32.2,25.1,06.3,-001.2,0008.86,0015.96,0008.09
2023-01-31 19:47:00,,0824.0,5.00,0.00,23.4,22.1,00.0,32.2,25.1,06.2,-000.9,0008.90,0016.43,0008.13
2023-01-31 19:48:00,,0824.0,4.99,0.00,23.4,22.1,00.0,32.2,25.1,06.1,-000.9,0008.93,0016.48,0008.15
2023-01-31 19:49:00,,0824.0,5.02,0.00,23.4,22.1,00.0,32.2,25.1,06.1,-000.9,0008.93,0016.53,0008.15
2023-01-31 19:50:00,,0824.0,5.03,0.00,23.4,22.1,00.0,32.2,25.2,06.2,-000.5,0008.87,0015.74,0008.12
2023-01-31 19:51:00,,0824.0,4.98,0.00,23.4,22.1,00.0,32.2,25.2,06.1,0000.2,0008.88,0015.52,0008.13
2023-01-31 19:52:00,,0824.0,4.97,0.00,23.4,22.1,00.0,32.2,25.2,06.1,0000.1,0008.85,0015.40,0008.13
2023-01-31 19:53:00,,0824.0,5.01,0.00,23.4,22.1,00.0,32.2,25.2,06.2,-000.1,0008.83,0014.71,0008.15
2023-01-31 19:54:00,,0824.0,4.97,0.00,23.4,22.1,00.0,32.2,25.2,06.1,-000.1,0008.79,0014.44,0008.15
2023-01-31 19:55:00,,0824.0,5.00,0.00,23.4,22.1,00.0,32.2,25.2,06.2,0000.2,0008.78,0015.01,0008.15
2023-01-31 19:56:00,,0823.9,5.00,0.00,23.4,22.1,00.0,32.2,25.1,06.3,0000.3,0008.79,0015.17,0008.15
2023-01-31 19:57:00,,0823.8,5.01,0.00,23.4,22.1,00.0,32.2,25.1,06.2,0000.3,0008.80,0014.82,0008.16
2023-01-31 19:58:00,,0823.8,5.01,0.00,23.4,22.1,00.0,32.2,25.1,06.2,0000.5,0008.76,0014.19,0008.15
2023-01-31 19:59:00,,0823.8,4.98,0.00,23.4,22.1,00.0,32.2,25.1,06.1,0000.0,0008.76,0014.19,0008.15
